Home   Weather   Ørsta   Past weeks

Flag for Norway Past Weather in Ørsta, Norway — Yesterday and Last 2 Weeks

Now
41 °F

Light rain. Passing clouds.


Feels Like: 37 °F
Forecast: 37 / 42 °F
Wind: 6 mph from North

Location: Orsta-Volda / Hovden

Current Time: Jan 17, 2017 at 8:23:07 am

Latest Report: Jan 17, 2017 at 7:50 am


Visibility: N/A

Pressure: 30.24 "Hg

Humidity: 76%

Dew Point: 34 °F

Location of ØrstaLocation

Past Weather in Ørsta — Graph

°F

Ørsta Temperature Yesterday

Maximum temperature yesterday: 37 °F (at 2:50 pm)
Minimum temperature yesterday: 10 °F (at 5:50 am)
Average temperature yesterday: 28 °F

High & Low Weather Summary for the Past Weeks

 TemperatureHumidityPressure
High50 °F (Jan 9, 10:50 am)100% (Jan 2, 6:50 am)30.48 "Hg (Jan 2, 6:50 am)
Low10 °F (Jan 16, 5:50 am)33% (Jan 16, 2:50 pm)28.62 "Hg (Jan 11, 8:50 am)
Average34 °F80%29.67 "Hg
* Reported Jan 2 6:50 am — Jan 17 6:50 am, Ørsta, Weather by CustomWeather, © 2017

Note: Actual official high and low records may vary slightly from our data, if they occured in-between our weather recording intervals... More about our weather records

Advertising

Ørsta Weather History for the Previous 24 Hours

Scroll right to see more
 ConditionsComfort  
Time TempWeatherWind HumidityBarometerVisibility
6:50 am
Tue, Jan 17
41 °FPassing clouds.10 mph70%30.24 "HgN/A
5:50 am41 °FPassing clouds.5 mph70%30.24 "HgN/A
10:50 pm
Mon, Jan 16
34 °FLight snow. Passing clouds.8 mph93%30.27 "Hg6 mi
10:20 pm34 °FLight snow. Passing clouds.8 mph87%30.27 "Hg6 mi
9:50 pm32 °FLight snow. Light fog.8 mph93%30.27 "Hg4 mi
9:20 pm32 °FLight snow. Fog.9 mph93%30.27 "Hg4 mi
8:50 pm34 °FSnow. Dense fog.9 mph87%30.27 "Hg2 mi
7:50 pm36 °FLight snow. Passing clouds.13 mph60%30.27 "HgN/A
6:50 pm36 °FPassing clouds.13 mph65%30.27 "HgN/A
5:50 pm37 °FLight rain. Partly cloudy.6 mph41%30.24 "HgN/A
4:50 pm37 °FScattered showers. Partly cloudy.8 mph35%30.24 "HgN/A
3:50 pm37 °FScattered showers. Passing clouds.6 mph35%30.24 "HgN/A
2:50 pm37 °FSunny.3 mph33%30.24 "Hg10 mi
1:50 pm34 °FSunny.3 mph60%30.24 "Hg10 mi
12:50 pm27 °FSunny.2 mph86%30.24 "Hg10 mi
11:50 am21 °FSunny.2 mph93%30.27 "Hg10 mi
10:50 am18 °FSunny.No wind93%30.27 "Hg10 mi
9:50 am16 °FSunny.1 mph93%30.27 "Hg10 mi
8:50 am14 °FClear.2 mph92%30.27 "Hg10 mi
Weather by CustomWeather, © 2017

See weather overviewHow to use our weather pages